User: anonymous   Login
Location: Caltech
(34.1382°N, 118.1253°W)
Time: 01:02:02
(UTC-07:00)
Language:

SL-16 R/B - Orbit

View from above orbital plane
View from above orbital plane
View from above satellite
View from above satellite

Ground track
Ground track

The orbit data is extracted from the following two-line orbital elements,

1 28353U 04021B   17081.92516244 -.00000227 +00000-0 -94144-4 0  9997
2 28353 070.9999 259.3698 0006835 311.8008 048.2529 14.14194856659958
Epoch (UTC): 22 March 2017 22:12:14
Eccentricity: 0.0006835
inclination: 70.9999°
perigee height: 840 km
apogee height: 850 km
right ascension of ascending node: 259.3698°
argument of perigee: 311.8008°
revolutions per day: 14.14194856
mean anomaly at epoch: 48.2529°
orbit number at epoch: 65995

The dashed part of the orbit path shows where the satellite is in the earth's shadow,  

DLR